| time (UTC) | temp F | wind direction | speed MPH | gust MPH | rain 1hr in | rain 24hr in | rain mn in | humidity % | barometer mb |
| 20260506194746 | 61 | 226 | 6.0 | 19.0 | 0.00 | 0.00 | 0.30 | 71 | 1015.5 |
| 20260506193619 | 61 | 202 | 7.0 | 14.0 | 0.00 | 0.00 | 0.30 | 71 | 1015.3 |
| 20260506192451 | 61 | 77 | 12.0 | 14.0 | 0.00 | 0.00 | 0.30 | 70 | 1015.2 |
| 20260506191323 | 61 | 162 | 5.0 | 17.0 | 0.00 | 0.00 | 0.30 | 70 | 1015.0 |
| 20260506190156 | 61 | 132 | 7.0 | 18.0 | 0.00 | 0.00 | 0.30 | 70 | 1015.0 |
| 20260506185029 | 61 | 160 | 8.0 | 17.0 | 0.00 | 0.00 | 0.30 | 70 | 1014.9 |
| 20260506183901 | 61 | 210 | 7.0 | 19.0 | 0.00 | 0.00 | 0.30 | 71 | 1014.6 |
| 20260506182733 | 61 | 192 | 10.0 | 17.0 | 0.00 | 0.00 | 0.30 | 70 | 1014.5 |
| 20260506181606 | 61 | 168 | 9.0 | 23.0 | 0.00 | 0.00 | 0.30 | 70 | 1014.2 |
| 20260506180439 | 62 | 207 | 7.0 | 27.0 | 0.00 | 0.00 | 0.30 | 70 | 1014.1 |
| 20260506175311 | 62 | 90 | 7.0 | 20.0 | 0.00 | 0.00 | 0.30 | 70 | 1013.8 |
| 20260506174144 | 62 | 120 | 15.0 | 19.0 | 0.00 | 0.00 | 0.30 | 70 | 1013.7 |
| 20260506173016 | 62 | 196 | 13.0 | 23.0 | 0.00 | 0.00 | 0.30 | 68 | 1013.5 |
| 20260506171849 | 63 | 210 | 22.0 | 26.0 | 0.00 | 0.00 | 0.30 | 68 | 1013.2 |
| 20260506170709 | 63 | 175 | 13.0 | 23.0 | 0.00 | 0.00 | 0.30 | 67 | 1013.2 |
| 20260506165541 | 62 | 210 | 5.0 | 14.0 | 0.00 | 0.00 | 0.30 | 66 | 1013.1 |
| 20260506164414 | 63 | 269 | 12.0 | 15.0 | 0.00 | 0.00 | 0.30 | 65 | 1013.3 |
| 20260506163246 | 64 | 214 | 15.0 | 22.0 | 0.00 | 0.00 | 0.30 | 65 | 1013.2 |
| 20260506162119 | 64 | 204 | 13.0 | 20.0 | 0.00 | 0.00 | 0.30 | 63 | 1013.1 |
| 20260506160951 | 64 | 204 | 7.0 | 29.0 | 0.00 | 0.00 | 0.30 | 63 | 1013.1 |
| 20260506155824 | 66 | 144 | 10.0 | 17.0 | 0.00 | 0.00 | 0.30 | 60 | 1013.2 |
| 20260506154644 | 66 | 138 | 5.0 | 16.0 | 0.00 | 0.00 | 0.30 | 59 | 1013.1 |
| 20260506153516 | 66 | 188 | 11.0 | 18.0 | 0.00 | 0.00 | 0.30 | 59 | 1013.1 |
| 20260506152349 | 66 | 150 | 9.0 | 16.0 | 0.00 | 0.00 | 0.30 | 60 | 1012.9 |
| 20260506151221 | 66 | 180 | 7.0 | 20.0 | 0.00 | 0.00 | 0.30 | 59 | 1012.9 |
| 20260506150054 | 65 | 221 | 18.0 | 22.0 | 0.00 | 0.00 | 0.30 | 60 | 1013.1 |
| 20260506144926 | 66 | 226 | 14.0 | 19.0 | 0.00 | 0.00 | 0.30 | 58 | 1013.2 |
| 20260506143759 | 66 | 246 | 4.0 | 23.0 | 0.00 | 0.00 | 0.30 | 57 | 1013.4 |
| 20260506142631 | 65 | 120 | 16.0 | 21.0 | 0.00 | 0.00 | 0.30 | 58 | 1013.5 |
| 20260506141504 | 66 | 204 | 9.0 | 24.0 | 0.00 | 0.00 | 0.30 | 57 | 1013.4 |
| 20260506140336 | 66 | 222 | 15.0 | 27.0 | 0.00 | 0.00 | 0.30 | 57 | 1013.5 |
| 20260506135209 | 67 | 96 | 10.0 | 22.0 | 0.00 | 0.00 | 0.30 | 58 | 1013.6 |
| 20260506134041 | 66 | 186 | 20.0 | 27.0 | 0.00 | 0.00 | 0.30 | 60 | 1013.7 |
| 20260506132914 | 66 | 187 | 5.0 | 20.0 | 0.00 | 0.00 | 0.30 | 61 | 1013.7 |
| 20260506131746 | 66 | 181 | 25.0 | 29.0 | 0.00 | 0.00 | 0.30 | 59 | 1013.6 |
| 20260506130606 | 67 | 205 | 9.0 | 22.0 | 0.00 | 0.00 | 0.30 | 58 | 1013.6 |
| 20260506125439 | 67 | 182 | 12.0 | 15.0 | 0.00 | 0.00 | 0.30 | 56 | 1013.6 |
| 20260506124311 | 68 | 114 | 11.0 | 21.0 | 0.00 | 0.00 | 0.30 | 59 | 1013.7 |
| 20260506123144 | 68 | 224 | 14.0 | 15.0 | 0.00 | 0.00 | 0.30 | 58 | 1013.6 |
| 20260506122016 | 67 | 95 | 9.0 | 23.0 | 0.00 | 0.00 | 0.30 | 60 | 1013.7 |
| 20260506120849 | 68 | 186 | 8.0 | 17.0 | 0.00 | 0.00 | 0.30 | 61 | 1013.5 |
| 20260506115721 | 68 | 95 | 9.0 | 19.0 | 0.00 | 0.00 | 0.30 | 58 | 1013.5 |
| 20260506114554 | 67 | 115 | 10.0 | 18.0 | 0.00 | 0.00 | 0.30 | 58 | 1013.6 |
| 20260506113426 | 67 | 154 | 10.0 | 22.0 | 0.00 | 0.00 | 0.30 | 59 | 1013.7 |
| 20260506112258 | 67 | 78 | 10.0 | 17.0 | 0.00 | 0.00 | 0.30 | 62 | 1013.7 |
| 20260506111131 | 67 | 146 | 18.0 | 21.0 | 0.00 | 0.00 | 0.30 | 63 | 1013.8 |
| 20260506110004 | 67 | 174 | 22.0 | 24.0 | 0.00 | 0.00 | 0.30 | 62 | 1013.9 |
| 20260506104836 | 68 | 161 | 3.0 | 14.0 | 0.00 | 0.00 | 0.30 | 62 | 1013.8 |
| 20260506103708 | 67 | 218 | 7.0 | 22.0 | 0.00 | 0.00 | 0.30 | 63 | 1013.8 |
| 20260506102541 | 68 | 120 | 9.0 | 12.0 | 0.00 | 0.00 | 0.30 | 59 | 1013.8 |
| 20260506101413 | 67 | 174 | 7.0 | 14.0 | 0.00 | 0.00 | 0.30 | 62 | 1013.8 |
| 20260506100246 | 67 | 197 | 8.0 | 16.0 | 0.00 | 0.00 | 0.30 | 65 | 1013.9 |
| 20260506095119 | 67 | 186 | 10.0 | 13.0 | 0.00 | 0.00 | 0.30 | 62 | 1013.8 |
| 20260506093951 | 68 | 121 | 4.0 | 9.0 | 0.00 | 0.00 | 0.30 | 69 | 1013.9 |
| 20260506092824 | 69 | 209 | 0.0 | 2.0 | 0.00 | 0.00 | 0.30 | 67 | 1013.9 |
| 20260506091656 | 66 | 197 | 1.0 | 3.0 | 0.00 | 0.00 | 0.30 | 73 | 1013.9 |
| 20260506090529 | 65 | 11 | 1.0 | 3.0 | 0.00 | 0.00 | 0.30 | 78 | 1014.0 |
| 20260506085401 | 66 | 342 | 0.0 | 1.0 | 0.00 | 0.00 | 0.30 | 79 | 1014.1 |
| 20260506084234 | 63 | 157 | 2.0 | 3.0 | 0.00 | 0.00 | 0.30 | 79 | 1014.1 |
| 20260506083106 | 63 | 77 | 2.0 | 2.0 | 0.00 | 0.00 | 0.30 | 82 | 1014.1 |
| 20260506081939 | 61 | 306 | 0.0 | 0.0 | 0.00 | 0.00 | 0.30 | 90 | 1014.3 |
| 20260506080811 | 61 | 262 | 0.0 | 2.0 | 0.00 | 0.00 | 0.30 | 91 | 1014.4 |
| 20260506073349 | 55 | 272 | 0.0 | 0.0 | 0.01 | 0.00 | 0.30 | 99 | 1014.8 |
| 20260506072221 | 55 | 303 | 0.0 | 1.0 | 0.03 | 0.00 | 0.30 | 99 | 1014.6 |
| 20260506071054 | 55 | 350 | 0.0 | 2.0 | 0.06 | 0.00 | 0.30 | 99 | 1014.2 |
| 20260506062504 | 54 | 186 | 0.0 | 2.0 | 0.11 | 0.00 | 0.28 | 99 | 1014.3 |
| 20260506061336 | 54 | 24 | 5.0 | 5.0 | 0.08 | 0.00 | 0.26 | 99 | 1014.1 |
| 20260506060209 | 54 | 88 | 0.0 | 0.0 | 0.06 | 0.00 | 0.24 | 99 | 1014.5 |
| 20260506050439 | 54 | 293 | 0.0 | 0.0 | 0.00 | 0.00 | 0.18 | 99 | 1014.6 |
| 20260506044144 | 53 | 305 | 0.0 | 3.0 | 0.00 | 0.00 | 0.18 | 99 | 1014.8 |
| 20260506043016 | 53 | 102 | 0.0 | 0.0 | 0.00 | 0.00 | 0.18 | 99 | 1015.1 |
| 20260506041849 | 53 | 197 | 0.0 | 2.0 | 0.00 | 0.00 | 0.18 | 99 | 1015.4 |
| 20260506040721 | 53 | 185 | 0.0 | 0.0 | 0.00 | 0.00 | 0.18 | 99 | 1015.6 |
| 20260506035554 | 53 | 312 | 0.0 | 3.0 | 0.00 | 0.00 | 0.18 | 99 | 1015.5 |
| 20260506034427 | 53 | 348 | 0.0 | 0.0 | 0.00 | 0.00 | 0.18 | 99 | 1015.5 |
| 20260506033259 | 53 | 342 | 0.0 | 2.0 | 0.00 | 0.00 | 0.18 | 99 | 1015.6 |
| 20260506032132 | 53 | 336 | 0.0 | 2.0 | 0.01 | 0.00 | 0.18 | 99 | 1015.5 |
| 20260506031004 | 53 | 336 | 0.0 | 0.0 | 0.05 | 0.00 | 0.18 | 99 | 1015.7 |
| 20260506025837 | 53 | 336 | 0.0 | 2.0 | 0.09 | 0.00 | 0.18 | 99 | 1015.7 |
| 20260506024709 | 53 | 312 | 0.0 | 3.0 | 0.14 | 0.00 | 0.18 | 99 | 1015.8 |
| 20260506023542 | 53 | 344 | 0.0 | 4.0 | 0.17 | 0.00 | 0.18 | 99 | 1016.1 |
| 20260506022414 | 53 | 330 | 0.0 | 2.0 | 0.17 | 0.00 | 0.18 | 99 | 1016.4 |
| 20260506021247 | 52 | 144 | 0.0 | 0.0 | 0.13 | 0.00 | 0.14 | 99 | 1016.7 |
| 20260506020107 | 52 | 171 | 0.0 | 3.0 | 0.09 | 0.00 | 0.10 | 99 | 1016.9 |
| 20260506014939 | 52 | 204 | 2.0 | 4.0 | 0.04 | 0.00 | 0.05 | 99 | 1017.2 |
| 20260506013812 | 52 | 127 | 2.0 | 2.0 | 0.01 | 0.00 | 0.01 | 99 | 1017.4 |
| 20260506012644 | 52 | 203 | 0.0 | 0.0 | 0.01 | 0.00 | 0.01 | 99 | 1017.3 |
| 20260506011517 | 52 | 138 | 0.0 | 0.0 | 0.01 | 0.00 | 0.01 | 99 | 1017.3 |
| 20260506010349 | 52 | 180 | 0.0 | 0.0 | 0.01 | 0.00 | 0.01 | 99 | 1017.6 |
| 20260506005222 | 52 | 186 | 5.0 | 5.0 | 0.01 | 0.00 | 0.01 | 99 | 1017.8 |
| 20260506004054 | 51 | 185 | 0.0 | 0.0 | 0.01 | 0.00 | 0.01 | 99 | 1017.8 |
| 20260506002927 | 51 | 133 | 0.0 | 2.0 | 0.00 | 0.00 | 0.00 | 99 | 1017.5 |
| 20260506001759 | 51 | 140 | 0.0 | 0.0 | 0.00 | 0.00 | 0.00 | 99 | 1017.8 |
| 20260506000632 | 51 | 155 | 0.0 | 0.0 | 0.00 | 0.00 | 0.00 | 99 | 1018.0 |
| 20260505235452 | 51 | 155 | 0.0 | 0.0 | 0.00 | 0.00 | 0.00 | 99 | 1018.2 |
| 20260505234324 | 51 | 154 | 0.0 | 0.0 | 0.00 | 0.00 | 0.00 | 99 | 1018.2 |
| 20260505233157 | 51 | 154 | 0.0 | 0.0 | 0.00 | 0.00 | 0.00 | 99 | 1018.2 |
| 20260505232029 | 52 | 142 | 0.0 | 0.0 | 0.00 | 0.00 | 0.00 | 99 | 1018.3 |
| 20260505230902 | 52 | 142 | 0.0 | 0.0 | 0.00 | 0.00 | 0.00 | 99 | 1018.4 |
| 20260505225735 | 51 | 159 | 0.0 | 4.0 | 0.00 | 0.00 | 0.65 | 99 | 1018.4 |
| 20260505224607 | 52 | 144 | 0.0 | 3.0 | 0.00 | 0.00 | 0.65 | 99 | 1018.5 |
| 20260505223440 | 52 | 162 | 0.0 | 3.0 | 0.00 | 0.00 | 0.65 | 99 | 1018.7 |
| 20260505222312 | 52 | 160 | 3.0 | 4.0 | 0.00 | 0.00 | 0.65 | 99 | 1018.8 |
| 20260505221145 | 52 | 174 | 0.0 | 2.0 | 0.00 | 0.00 | 0.65 | 99 | 1018.7 |
| 20260505220017 | 53 | 126 | 0.0 | 2.0 | 0.00 | 0.00 | 0.65 | 99 | 1018.7 |
| 20260505214850 | 53 | 156 | 3.0 | 3.0 | 0.00 | 0.00 | 0.65 | 99 | 1019.1 |
| 20260505213722 | 53 | 164 | 0.0 | 3.0 | 0.00 | 0.00 | 0.65 | 99 | 1019.0 |
| 20260505212554 | 53 | 143 | 0.0 | 1.0 | 0.00 | 0.00 | 0.65 | 99 | 1019.2 |
| 20260505211427 | 54 | 145 | 0.0 | 2.0 | 0.00 | 0.00 | 0.65 | 99 | 1019.2 |
| 20260505210259 | 54 | 189 | 0.0 | 0.0 | 0.00 | 0.00 | 0.65 | 99 | 1019.2 |
| 20260505205107 | 54 | 126 | 0.0 | 0.0 | 0.00 | 0.00 | 0.65 | 99 | 1019.3 |
| 20260505203939 | 54 | 123 | 0.0 | 0.0 | 0.00 | 0.00 | 0.65 | 99 | 1019.3 |
| 20260505202812 | 54 | 133 | 0.0 | 0.0 | 0.00 | 0.00 | 0.65 | 99 | 1019.3 |
| 20260505201644 | 54 | 133 | 0.0 | 0.0 | 0.00 | 0.00 | 0.65 | 98 | 1019.3 |
| 20260505200517 | 55 | 133 | 0.0 | 0.0 | 0.00 | 0.00 | 0.65 | 98 | 1019.3 |